Eastsound, WA

6:48 AM PST on December 04, 2016 (GMT -0800)
Orcas Island

Weather History for KORS - May, 2014

Change the Weather History Date:

Sunday, May 25, 2014

  Actual Average (KBLI) Record (KBLI)
Temperature  
Mean Temperature 54 °F 56 °F  
Max Temperature 57 °F 64 °F 80 °F (1979)
Min Temperature 51 °F 47 °F 35 °F (1972)
Degree Days  
Heating Degree Days 11 9  
Month to date heating degree days 291  
Cooling Degree Days 0 0  
Month to date cooling degree days 0  
Year to date cooling degree days 0  
Growing Degree Days 4 (Base 50)    
Moisture  
Dew Point 49 °F    
Average Humidity 83    
Maximum Humidity 88    
Minimum Humidity 72    
Precipitation  
Precipitation 0.00 in 0.08 in 0.61 in (1984)
Month to date precipitation 1.99  
Year to date precipitation 15.59  
Sea Level Pressure  
Sea Level Pressure 30.03 in    
Wind  
Wind Speed 4 mph (SSW)    
Max Wind Speed 12 mph    
Max Gust Speed 16 mph    
Visibility 9 miles    
Events Rain    
T = Trace of Precipitation, MM = Missing Value Source: NWS Daily Summary

Daily Weather History Graph

Daily Weather History Graph

Search for Another Location

Airport or City:

Trip Planner

Search our weather history database for the weather conditions in past years. The results will help you decide how hot, cold, wet, or windy it might be!

Date:

Astronomy

May. 25, 2014 Rise Set
Actual Time 5:18 AM PDT 8:58 PM PDT
Civil Twilight 4:39 AM PDT 9:38 PM PDT
Nautical Twilight 3:45 AM PDT 10:32 PM PDT
Astronomical Twilight 2:29 AM PDT 11:50 PM PDT
Moon 3:44 AM PDT (5/25) 5:50 PM PDT (5/25)
Length of Visible Light 16h 59m
Length of Day
15h 40m
Waning Crescent, 10% of the Moon is Illuminated
May 25
Waning Crescent
May 28
New
Jun 5
First Quarter
Jun 12
Full
Jun 19
Last Quarter

Hourly Weather History & Observations

Time (PDT) Temp. Dew Point Humidity Pressure Visibility Wind Dir Wind Speed Gust Speed Precip Events Conditions
12:15 AM 53.6 °F 46.4 °F 77% 30.11 in 10.0 mi Calm Calm - N/A   Clear
12:35 AM 51.8 °F 46.4 °F 82% 30.11 in 10.0 mi South 4.6 mph - N/A   Clear
12:55 AM 51.8 °F 48.2 °F 88% 30.11 in 10.0 mi North - - N/A   Clear
1:15 AM 51.8 °F 48.2 °F 88% 30.10 in 10.0 mi North - - N/A   Clear
1:35 AM 51.8 °F 48.2 °F 88% 30.10 in 10.0 mi Calm Calm - N/A   Clear
1:55 AM 51.8 °F 48.2 °F 88% 30.10 in 10.0 mi Calm Calm - N/A   Clear
2:15 AM 51.8 °F 48.2 °F 88% 30.10 in 10.0 mi Calm Calm - N/A   Clear
2:35 AM 51.8 °F 48.2 °F 88% 30.09 in 10.0 mi North - - N/A   Scattered Clouds
2:55 AM 53.6 °F 48.2 °F 82% 30.08 in 10.0 mi Calm Calm - N/A   Mostly Cloudy
3:15 AM 53.6 °F 48.2 °F 82% 30.08 in 10.0 mi South 5.8 mph - N/A   Mostly Cloudy
3:35 AM 53.6 °F 48.2 °F 82% 30.08 in 10.0 mi South 4.6 mph - N/A   Overcast
3:55 AM 53.6 °F 48.2 °F 82% 30.08 in 10.0 mi Calm Calm - N/A   Mostly Cloudy
4:15 AM 53.6 °F 46.4 °F 77% 30.08 in 10.0 mi SSW 3.5 mph - N/A   Mostly Cloudy
4:35 AM 53.6 °F 48.2 °F 82% 30.08 in 10.0 mi SSW 4.6 mph - N/A   Overcast
4:55 AM 53.6 °F 48.2 °F 82% 30.07 in 10.0 mi Calm Calm - N/A   Overcast
5:15 AM 53.6 °F 48.2 °F 82% 30.06 in 10.0 mi Calm Calm - N/A   Overcast
5:35 AM 53.6 °F 48.2 °F 82% 30.05 in 10.0 mi Calm Calm - N/A   Mostly Cloudy
5:55 AM 53.6 °F 48.2 °F 82% 30.05 in 10.0 mi Calm Calm - N/A   Scattered Clouds
6:15 AM 53.6 °F 48.2 °F 82% 30.05 in 10.0 mi North - - N/A   Clear
6:35 AM 53.6 °F 48.2 °F 82% 30.06 in 10.0 mi Calm Calm - N/A   Clear
6:55 AM 53.6 °F 48.2 °F 82% 30.06 in 10.0 mi Calm Calm - N/A   Clear
7:15 AM 53.6 °F 50.0 °F 88% 30.05 in 10.0 mi South 4.6 mph - N/A   Partly Cloudy
7:35 AM 53.6 °F 48.2 °F 82% 30.05 in 10.0 mi South 4.6 mph - N/A   Scattered Clouds
8:15 AM 53.6 °F 48.2 °F 82% 30.05 in 10.0 mi South 6.9 mph - N/A   Partly Cloudy
8:35 AM 53.6 °F 48.2 °F 82% 30.05 in 9.0 mi South 6.9 mph - N/A   Scattered Clouds
8:55 AM 53.6 °F 48.2 °F 82% 30.05 in 9.0 mi South 5.8 mph - N/A   Scattered Clouds
9:15 AM 53.6 °F 48.2 °F 82% 30.04 in 9.0 mi South 4.6 mph - N/A   Partly Cloudy
9:35 AM 53.6 °F 50.0 °F 88% 30.04 in 6.0 mi South 8.1 mph - N/A Rain Light Rain
9:55 AM 53.6 °F 50.0 °F 88% 30.04 in 8.0 mi South 8.1 mph - N/A Rain Light Rain
10:15 AM 55.4 °F 50.0 °F 82% 30.04 in 10.0 mi SSW 8.1 mph - N/A   Scattered Clouds
10:35 AM 55.4 °F 50.0 °F 82% 30.03 in 9.0 mi SSW 6.9 mph - N/A   Scattered Clouds
10:55 AM 55.4 °F 50.0 °F 82% 30.03 in 9.0 mi SSW 9.2 mph - N/A   Scattered Clouds
11:15 AM 55.4 °F 50.0 °F 82% 30.03 in 9.0 mi SSW 4.6 mph - N/A   Scattered Clouds
11:35 AM 55.4 °F 50.0 °F 82% 30.03 in 10.0 mi SW 4.6 mph - N/A   Partly Cloudy
11:55 AM 57.2 °F 50.0 °F 77% 30.02 in 9.0 mi South 4.6 mph - N/A   Clear
12:15 PM 57.2 °F 50.0 °F 77% 30.02 in 10.0 mi SSW 5.8 mph - N/A   Clear
12:35 PM 57.2 °F 48.2 °F 72% 30.02 in 10.0 mi SSW 5.8 mph - N/A   Clear
12:55 PM 57.2 °F 48.2 °F 72% 30.01 in 10.0 mi SSW 4.6 mph - N/A   Partly Cloudy
1:15 PM 57.2 °F 50.0 °F 77% 30.01 in 10.0 mi SSW 6.9 mph - N/A   Scattered Clouds
1:35 PM 57.2 °F 50.0 °F 77% 30.01 in 10.0 mi South 8.1 mph - N/A   Mostly Cloudy
1:55 PM 57.2 °F 50.0 °F 77% 30.01 in 9.0 mi South 6.9 mph - N/A   Mostly Cloudy
2:15 PM 57.2 °F 50.0 °F 77% 30.01 in 7.0 mi SW 5.8 mph - N/A Rain Light Rain
2:35 PM 57.2 °F 50.0 °F 77% 30.01 in 6.0 mi Calm Calm - N/A Rain Light Rain
2:55 PM 55.4 °F 50.0 °F 82% 30.01 in 5.0 mi Calm Calm - N/A Rain Light Rain
3:15 PM 53.6 °F 50.0 °F 88% 30.01 in 3.0 mi Calm Calm - N/A Rain Light Rain
3:35 PM 55.4 °F 50.0 °F 82% 30.01 in 5.0 mi SSW 6.9 mph - N/A Rain Light Rain
3:55 PM 55.4 °F 50.0 °F 82% 30.01 in 5.0 mi SW 5.8 mph - N/A Rain Light Rain
4:15 PM 55.4 °F 51.8 °F 88% 30.01 in 5.0 mi Calm Calm - N/A Rain Light Rain
4:35 PM 55.4 °F 51.8 °F 88% 30.00 in 7.0 mi Calm Calm - N/A   Clear
4:55 PM 55.4 °F 50.0 °F 82% 29.99 in 5.0 mi Calm Calm - N/A Rain Light Rain
5:15 PM 55.4 °F 51.8 °F 88% 29.99 in 10.0 mi SE 4.6 mph - N/A   Clear
5:35 PM 55.4 °F 51.8 °F 88% 29.99 in 10.0 mi South 5.8 mph - N/A   Clear
5:55 PM 55.4 °F 51.8 °F 88% 29.98 in 10.0 mi Calm Calm - N/A   Partly Cloudy
6:15 PM 55.4 °F 51.8 °F 88% 29.98 in 10.0 mi SSW 9.2 mph - N/A   Partly Cloudy
6:35 PM 55.4 °F 51.8 °F 88% 29.98 in 8.0 mi SSW 10.4 mph - N/A Rain Light Rain
6:55 PM 55.4 °F 50.0 °F 82% 29.98 in 9.0 mi South 8.1 mph - N/A   Scattered Clouds
7:15 PM 55.4 °F 50.0 °F 82% 29.98 in 9.0 mi South 6.9 mph - N/A   Scattered Clouds
7:35 PM 55.4 °F 50.0 °F 82% 29.97 in 10.0 mi South 10.4 mph - N/A   Scattered Clouds
7:55 PM 55.4 °F 50.0 °F 82% 29.98 in 10.0 mi South 9.2 mph - N/A   Scattered Clouds
8:15 PM 55.4 °F 50.0 °F 82% 29.98 in 10.0 mi South 11.5 mph 16.1 mph N/A   Partly Cloudy
8:35 PM 55.4 °F 50.0 °F 82% 29.98 in 9.0 mi South 4.6 mph - N/A   Scattered Clouds
8:55 PM 55.4 °F 50.0 °F 82% 29.98 in 10.0 mi SSW 9.2 mph - N/A   Overcast
9:15 PM 53.6 °F 50.0 °F 88% 29.97 in 10.0 mi South 8.1 mph - N/A   Mostly Cloudy
9:35 PM 53.6 °F 50.0 °F 88% 29.98 in 10.0 mi SSW 9.2 mph - N/A   Mostly Cloudy
9:55 PM 53.6 °F 50.0 °F 88% 29.98 in 10.0 mi South 6.9 mph - N/A Rain Light Rain
10:15 PM 53.6 °F 50.0 °F 88% 29.98 in 10.0 mi South 8.1 mph - N/A   Overcast
10:35 PM 53.6 °F 50.0 °F 88% 29.98 in 10.0 mi SSW 8.1 mph - N/A   Overcast
10:55 PM 53.6 °F 50.0 °F 88% 29.97 in 10.0 mi SSW 8.1 mph - N/A   Overcast
11:15 PM 53.6 °F 50.0 °F 88% 29.97 in 10.0 mi SSW 8.1 mph - N/A   Overcast
11:35 PM 53.6 °F 50.0 °F 88% 29.97 in 10.0 mi SSW 6.9 mph - N/A   Mostly Cloudy
11:55 PM 53.6 °F 50.0 °F 88% 29.97 in 10.0 mi South 5.8 mph - N/A   Mostly Cloudy